DateTimeUTC,F1_A11,F1_S11,BsB_S11,BsG_S11,BsR_S11,BbsB_S11,BbsG_S11,BbsR_S11,BaB_A11,BaG_A11,BaR_A11,Tu_S11,T_S11,Uu_S11,U_S11,P_S11,T1_A11
2021-07-24T03:00:00Z,00000200,20000000,,,,,,,0000.09,0000.25,0000.11,18.6,25.5,07.0,04.6,0665.5,31.1
2021-07-24T03:01:00Z,00000200,20000000,,,,,,,0000.61,0000.33,0000.34,18.6,25.5,07.0,04.6,0665.5,31.1
2021-07-24T03:02:00Z,00000200,20000000,,,,,,,-000.34,0000.01,0000.23,18.6,25.5,07.0,04.6,0665.6,31.1
2021-07-24T03:03:00Z,00000200,60000000,,,,,,,0001.18,0000.93,0000.41,18.7,25.5,07.0,04.6,0665.6,31.1
2021-07-24T03:04:00Z,00000200,40000000,0002.06,0001.24,0000.62,-000.48,-000.11,-000.08,0000.44,0000.45,0000.14,18.9,25.4,07.1,04.8,0666.5,31.1
2021-07-24T03:05:00Z,00000200,00000000,0001.83,0000.89,0000.72,0000.18,0000.34,-000.01,0000.53,-000.03,0000.45,19.0,25.3,07.0,04.8,0666.6,31.1
2021-07-24T03:06:00Z,00000200,00000000,0002.26,0001.26,0000.88,0000.29,0000.54,-000.22,0000.17,0000.55,0000.24,18.9,25.3,07.1,04.8,0666.6,31.1
2021-07-24T03:07:00Z,00000200,00000000,0001.74,0000.66,0000.91,0000.62,0000.46,-000.11,0000.44,0000.26,0000.15,18.9,25.3,07.2,04.9,0666.6,31.1
2021-07-24T03:08:00Z,00000200,00000000,0001.65,0000.89,0000.69,-000.06,0000.49,-000.10,0000.48,0000.32,0000.49,18.9,25.3,07.1,04.8,0666.6,31.1
2021-07-24T03:09:00Z,00000200,00000000,0002.18,0001.10,0000.41,-000.08,0000.12,0000.09,0000.35,0000.96,0000.32,18.9,25.3,07.3,04.9,0666.6,31.1
2021-07-24T03:10:00Z,00000200,00000000,0002.05,0000.94,0000.97,0000.09,0000.51,0000.21,0000.44,-000.07,0000.26,18.9,25.2,07.5,05.1,0666.6,31.1
2021-07-24T03:11:00Z,00000200,00000000,0000.69,0000.88,0000.92,-000.01,0000.35,0000.04,0000.36,0000.46,0000.51,18.8,25.2,07.6,05.1,0666.6,31.1
2021-07-24T03:12:00Z,00000200,00000000,0001.14,0001.47,0000.77,0000.23,0000.60,0000.38,0000.42,0000.75,0000.13,18.8,25.2,07.6,05.1,0666.6,31.1
2021-07-24T03:13:00Z,00000200,00000000,0001.97,0001.26,0000.63,0000.52,0000.43,-000.06,0000.26,0000.18,0000.32,18.8,25.2,07.6,05.2,0666.6,31.1
2021-07-24T03:14:00Z,00000200,00000000,0002.19,0001.05,0000.66,0000.55,0000.45,0000.22,0000.34,-000.16,0000.02,18.8,25.2,07.6,05.1,0666.6,31.1
2021-07-24T03:15:00Z,00000200,00000000,0001.93,0001.28,0000.82,0000.32,0000.42,-000.07,0000.88,0000.89,0000.78,18.8,25.2,07.5,05.1,0666.6,31.1
2021-07-24T03:16:00Z,00000200,00000000,0002.64,0001.16,0001.13,0000.90,0000.77,0000.18,0000.55,0000.24,0000.39,18.9,25.2,07.6,05.2,0666.5,31.1
2021-07-24T03:17:00Z,00000200,00000000,0001.78,0001.09,0000.46,0000.22,0000.53,0000.04,0000.24,0000.24,0000.10,19.0,25.3,07.6,05.2,0666.6,31.1
2021-07-24T03:18:00Z,00000200,00000000,0002.39,0000.99,0001.12,0000.22,0000.41,0000.16,0000.00,0000.26,0000.42,19.0,25.3,07.5,05.1,0666.6,31.1
2021-07-24T03:19:00Z,00000200,00000000,0001.43,0001.24,0000.79,-000.18,0000.18,0000.24,0000.60,0000.63,0000.45,19.0,25.3,07.5,05.1,0666.6,31.1
2021-07-24T03:20:00Z,00000200,00000000,0002.33,0001.55,0000.84,0000.39,0000.37,-000.07,0000.10,0000.27,-000.27,19.0,25.3,07.4,05.1,0666.6,31.1
2021-07-24T03:21:00Z,00000200,00000000,0001.82,0001.23,0000.92,0001.01,0000.38,0000.17,0000.54,0000.49,0000.59,19.0,25.3,07.5,05.1,0666.6,31.1
2021-07-24T03:22:00Z,00000200,00000000,0001.91,0001.28,0001.08,0000.03,0000.50,0000.28,0000.21,-000.01,0000.20,18.9,25.3,07.4,05.1,0666.6,31.1
2021-07-24T03:23:00Z,00000200,00000000,0001.94,0001.52,0000.96,0000.33,0000.61,0000.12,0000.75,0000.25,0000.26,18.9,25.2,07.5,05.1,0666.6,31.1
2021-07-24T03:24:00Z,00000200,00000000,0002.65,0001.30,0000.70,0000.18,0000.27,0000.33,-000.06,0000.55,0000.09,18.9,25.2,07.5,05.1,0666.6,31.1
2021-07-24T03:25:00Z,00000200,00000000,0001.51,0001.19,0000.92,0000.83,0000.58,0000.24,0000.41,0000.41,0000.32,18.9,25.2,07.5,05.1,0666.6,31.1
2021-07-24T03:26:00Z,00000200,00000000,0002.04,0001.24,0000.91,-000.01,0000.45,0000.34,0000.50,0000.40,0000.22,18.9,25.2,07.6,05.2,0666.5,31.1
2021-07-24T03:27:00Z,00000200,00000000,0002.13,0001.45,0000.73,0000.51,0000.57,0000.32,0000.18,0000.12,0000.49,18.9,25.2,07.5,05.1,0666.5,31.1
2021-07-24T03:28:00Z,00000200,00000000,0002.10,0001.33,0001.24,0000.25,0000.40,0000.27,0000.63,0000.31,-000.05,18.8,25.2,07.6,05.2,0666.5,31.1
2021-07-24T03:29:00Z,00000200,00000000,0002.70,0001.39,0000.77,0000.44,0000.79,0000.32,0000.42,0000.63,0000.44,18.8,25.2,07.6,05.1,0666.5,31.1
2021-07-24T03:30:00Z,00000200,00000000,0002.36,0001.25,0000.81,-000.35,0000.14,-000.04,0000.50,0000.23,0000.84,18.8,25.2,07.6,05.2,0666.5,31.1
2021-07-24T03:31:00Z,00000200,00000000,0002.79,0001.05,0000.69,0000.30,0000.32,0000.25,0000.54,0000.10,0000.09,18.9,25.2,07.6,05.2,0666.5,31.1
2021-07-24T03:32:00Z,00000200,00000000,0001.42,0000.86,0000.95,0000.32,0000.30,-000.35,-000.01,0000.84,-000.18,19.0,25.2,07.6,05.2,0666.5,31.1
2021-07-24T03:33:00Z,00000200,00000000,0002.06,0001.26,0000.94,0000.10,0000.44,0000.28,0000.59,0000.18,0000.76,19.0,25.2,07.5,05.1,0666.5,31.1
2021-07-24T03:34:00Z,00000200,00000000,0002.13,0001.04,0000.80,0000.04,0000.23,0000.11,0000.20,0000.35,-000.10,19.0,25.3,07.6,05.2,0666.5,31.1
2021-07-24T03:35:00Z,00000200,00000000,0001.94,0001.19,0001.00,-000.49,0000.69,0000.09,0000.60,0000.35,0000.57,19.0,25.3,07.5,05.1,0666.5,31.1
2021-07-24T03:36:00Z,00000200,00000000,0002.90,0001.38,0001.07,0000.11,0000.76,0000.21,0000.37,0000.51,0000.04,19.0,25.3,07.5,05.1,0666.5,31.1
2021-07-24T03:37:00Z,00000200,00000000,0002.63,0001.45,0001.12,-000.26,0000.35,0000.20,0000.27,0000.17,0000.63,18.9,25.2,07.6,05.2,0666.5,31.1
2021-07-24T03:38:00Z,00000200,00000000,0002.77,0001.53,0001.20,0000.48,0000.30,0000.49,0005.80,0005.27,0004.07,18.9,25.2,07.6,05.2,0666.5,31.1
2021-07-24T03:39:00Z,00000200,00000000,0003.01,0001.56,0001.46,0000.48,0000.86,0000.01,0016.56,0014.87,0011.00,18.9,25.2,07.7,05.2,0666.5,31.1
2021-07-24T03:40:00Z,00000200,00000000,0002.39,0001.32,0000.83,0000.45,0000.70,0000.39,0012.47,0011.47,0008.71,18.9,25.2,07.6,05.2,0666.5,31.1
2021-07-24T03:41:00Z,00000200,00000000,0001.67,0001.41,0000.93,0000.18,0000.18,-000.22,0002.64,0002.65,0002.14,18.8,25.2,07.7,05.2,0666.5,31.1
2021-07-24T03:42:00Z,00000200,00000000,0002.28,0001.34,0000.98,0000.37,0000.46,-000.11,0002.21,0001.96,0001.67,18.8,25.2,07.8,05.3,0666.5,31.1
2021-07-24T03:43:00Z,00000200,00000000,0002.98,0001.16,0000.96,0000.47,0000.46,0000.37,0000.98,0000.38,0000.11,18.8,25.2,07.7,05.2,0666.5,31.1
2021-07-24T03:44:00Z,00000200,00000000,0002.35,0001.16,0001.10,-000.17,0000.52,0000.20,0000.09,0000.26,0000.42,18.8,25.2,07.7,05.2,0666.5,31.1
2021-07-24T03:45:00Z,00000200,00000000,0002.70,0001.17,0000.99,-000.59,0000.24,0000.09,0000.49,0000.76,0000.65,18.8,25.2,07.7,05.3,0666.5,31.1
2021-07-24T03:46:00Z,00000200,00000000,0002.15,0001.34,0000.70,0000.08,0000.18,0000.34,0000.57,0000.44,-000.03,18.9,25.2,07.6,05.2,0666.5,31.1
2021-07-24T03:47:00Z,00000200,00000000,0001.64,0001.29,0000.80,0000.19,0000.47,0000.30,0000.50,0000.11,0000.62,19.0,25.2,07.5,05.1,0666.5,31.1
2021-07-24T03:48:00Z,00000200,00000000,0001.65,0001.08,0000.74,0000.07,0000.43,0000.12,0000.40,0000.69,0000.33,19.0,25.2,07.5,05.2,0666.5,31.1
2021-07-24T03:49:00Z,00000200,00000000,0002.27,0000.98,0000.94,0000.59,0000.51,0000.08,0000.46,0000.49,0000.28,19.0,25.2,07.6,05.2,0666.5,31.1
2021-07-24T03:50:00Z,00000200,00000000,0001.80,0001.16,0000.98,0000.93,0000.28,-000.14,-000.19,-000.08,0000.02,19.0,25.2,07.5,05.1,0666.5,31.1
2021-07-24T03:51:00Z,00000200,00000000,0001.55,0001.18,0000.86,0000.45,0000.35,-000.01,0000.75,0000.45,0000.46,19.0,25.2,07.5,05.1,0666.5,31.1
2021-07-24T03:52:00Z,00000200,00000000,0002.23,0001.65,0000.48,0000.78,0000.65,0000.42,0000.16,0000.02,-000.19,19.0,25.2,07.6,05.2,0666.5,31.1
2021-07-24T03:53:00Z,00000200,00000000,0002.23,0001.14,0000.78,0000.59,0000.34,-000.00,0000.49,0000.51,0000.69,19.0,25.2,07.6,05.2,0666.5,31.1
2021-07-24T03:54:00Z,00000200,00000000,0002.54,0001.49,0000.77,0000.09,0000.38,0000.09,0000.59,0000.77,0000.07,18.9,25.2,07.7,05.3,0666.5,31.1
2021-07-24T03:55:00Z,00000200,00000000,0001.83,0001.36,0000.96,-000.22,0000.30,0000.01,0000.23,0000.07,0000.45,18.9,25.2,07.8,05.3,0666.5,31.1
2021-07-24T03:56:00Z,00000200,00000000,0001.97,0001.38,0000.75,0000.57,0000.33,0000.29,0000.19,0000.29,0000.31,18.9,25.2,07.6,05.2,0666.5,31.1
2021-07-24T03:57:00Z,00000200,40000000,,,,,,,0000.18,0000.28,0000.08,18.9,25.2,07.3,05.0,0666.6,31.1
2021-07-24T03:58:00Z,00000200,60000000,,,,,,,-000.19,-000.78,-000.16,18.6,25.3,07.7,05.1,0665.5,31.1
2021-07-24T03:59:00Z,00000200,20000000,,,,,,,-000.05,0000.70,0000.16,18.6,25.4,07.6,05.0,0665.5,31.1
